,,,PA_Meas_PMT16A,,PR_Meas_QMR101_102,,RH_Meas_QMH101,,SR_Meas_QMS101,,TA_Meas_QMH101,,GenWind,,GenWind,
date,time,status,PA,status,PR,status,RH,status,SR,status,TA,status,DirAvg,status,SpdAvg,
2009-11-28, 00:00:04,VALID,1003.41,VALID,0,VALID,86.6259,VALID,0,VALID,26.7804,VALID,354,VALID,0.0738281,
2009-11-28, 00:01:04,VALID,1003.38,VALID,0,VALID,86.687,VALID,0,VALID,26.7804,VALID,357,VALID,0.435937,
2009-11-28, 00:02:04,VALID,1003.39,VALID,0,VALID,86.7404,VALID,0,VALID,26.7804,VALID,357,VALID,0.177734,
2009-11-28, 00:03:04,VALID,1003.37,VALID,0,VALID,86.7327,VALID,0,VALID,26.7804,VALID,358,VALID,0.410156,
2009-11-28, 00:04:04,VALID,1003.34,VALID,0,VALID,86.748,VALID,0,VALID,26.7804,VALID,358,VALID,0.307422,
2009-11-28, 00:05:04,VALID,1003.29,VALID,0,VALID,86.7556,VALID,0,VALID,26.7589,VALID,357,VALID,0.237891,
2009-11-28, 00:06:04,VALID,1003.3,VALID,0,VALID,86.7938,VALID,0,VALID,26.7589,VALID,357,VALID,0.0691406,
2009-11-28, 00:07:04,VALID,1003.28,VALID,0,VALID,86.8624,VALID,0.100563,VALID,26.7199,VALID,357,VALID,0.169922,
2009-11-28, 00:08:04,VALID,1003.29,VALID,0,VALID,86.9311,VALID,0.100563,VALID,26.7199,VALID,357,VALID,0.00234375,
2009-11-28, 00:09:04,VALID,1003.24,VALID,0,VALID,86.954,VALID,0,VALID,26.7024,VALID,357,VALID,0.134375,
2009-11-28, 00:10:04,VALID,1003.25,VALID,0,VALID,87.076,VALID,0,VALID,26.7024,VALID,352,VALID,0.348437,
2009-11-28, 00:11:04,VALID,1003.2,VALID,0,VALID,87.16,VALID,0,VALID,26.6809,VALID,351,VALID,0.131641,
2009-11-28, 00:12:04,VALID,1003.21,VALID,0,VALID,87.1523,VALID,0,VALID,26.6614,VALID,351,VALID,0,
2009-11-28, 00:13:04,VALID,1003.2,VALID,0,VALID,87.2591,VALID,0,VALID,26.6635,VALID,351,VALID,0.304688,
2009-11-28, 00:14:04,VALID,1003.21,VALID,0,VALID,87.3812,VALID,0,VALID,26.6635,VALID,350,VALID,0.0328125,
2009-11-28, 00:15:04,VALID,1003.18,VALID,0,VALID,87.5109,VALID,0,VALID,26.644,VALID,316,VALID,0.298438,
2009-11-28, 00:16:04,VALID,1003.16,VALID,0,VALID,87.6329,VALID,0,VALID,26.644,VALID,307,VALID,0.312109,
2009-11-28, 00:17:04,VALID,1003.17,VALID,0,VALID,87.5719,VALID,0,VALID,26.6225,VALID,307,VALID,0.333984,
2009-11-28, 00:18:04,VALID,1003.16,VALID,0,VALID,87.6253,VALID,0,VALID,26.6225,VALID,345,VALID,0.249609,
2009-11-28, 00:19:04,VALID,1003.14,VALID,0,VALID,87.6177,VALID,0,VALID,26.6225,VALID,338,VALID,0.706641,
2009-11-28, 00:20:04,VALID,1003.12,VALID,0,VALID,87.5872,VALID,0,VALID,26.6635,VALID,328,VALID,0.109766,
2009-11-28, 00:21:04,VALID,1003.1,VALID,0,VALID,87.6329,VALID,0,VALID,26.6225,VALID,328,VALID,0,
2009-11-28, 00:22:04,VALID,1003.1,VALID,0,VALID,87.6711,VALID,0,VALID,26.6225,VALID,335,VALID,0.311328,
2009-11-28, 00:23:04,VALID,1003.1,VALID,0,VALID,87.7092,VALID,0,VALID,26.6225,VALID,336,VALID,0.00703125,
2009-11-28, 00:24:04,VALID,1003.05,VALID,0,VALID,87.8008,VALID,0,VALID,26.642,VALID,281,VALID,0.139062,
2009-11-28, 00:25:04,VALID,1003.04,VALID,0,VALID,87.7779,VALID,0,VALID,26.6225,VALID,353,VALID,0.931641,
2009-11-28, 00:26:04,VALID,1003.02,VALID,0,VALID,87.7626,VALID,0,VALID,26.6635,VALID,356,VALID,0.146094,
2009-11-28, 00:27:04,VALID,1002.98,VALID,0,VALID,87.6329,VALID,0,VALID,26.642,VALID,345,VALID,0.915625,
2009-11-28, 00:28:04,VALID,1002.96,VALID,0,VALID,87.549,VALID,0,VALID,26.6809,VALID,348,VALID,0.694141,
2009-11-28, 00:29:04,VALID,1002.92,VALID,0,VALID,87.488,VALID,0,VALID,26.7024,VALID,300,VALID,0.114453,
2009-11-28, 00:30:04,VALID,1002.92,VALID,0,VALID,87.4804,VALID,0,VALID,26.7414,VALID,327,VALID,0.550391,
2009-11-28, 00:31:04,VALID,1002.9,VALID,0,VALID,87.282,VALID,0,VALID,26.7414,VALID,344,VALID,0.779297,
2009-11-28, 00:32:04,VALID,1002.87,VALID,0,VALID,87.2973,VALID,0,VALID,26.7998,VALID,318,VALID,0.392188,
2009-11-28, 00:33:04,VALID,1002.88,VALID,0,VALID,87.1218,VALID,0,VALID,26.7978,VALID,337,VALID,0.277734,
2009-11-28, 00:34:04,VALID,1002.88,VALID,0,VALID,86.9387,VALID,0,VALID,26.8388,VALID,304,VALID,0.302344,
2009-11-28, 00:35:04,VALID,1002.9,VALID,0,VALID,86.8472,VALID,0,VALID,26.8368,VALID,357,VALID,0.772656,
2009-11-28, 00:36:04,VALID,1002.88,VALID,0,VALID,86.7709,VALID,0,VALID,26.8368,VALID,325,VALID,0.0832031,
2009-11-28, 00:37:04,VALID,1002.89,VALID,0,VALID,86.6565,VALID,0,VALID,26.8778,VALID,329,VALID,0.50625,
2009-11-28, 00:38:04,VALID,1002.91,VALID,0,VALID,86.5649,VALID,0,VALID,26.8973,VALID,277,VALID,0.463281,
2009-11-28, 00:39:04,VALID,1002.89,VALID,0,VALID,86.5039,VALID,0,VALID,26.8973,VALID,280,VALID,0.202734,
2009-11-28, 00:40:04,VALID,1002.89,VALID,0,VALID,86.4734,VALID,0,VALID,26.9167,VALID,280,VALID,0.269922,
2009-11-28, 00:41:04,VALID,1002.85,VALID,0,VALID,86.5191,VALID,0,VALID,26.9167,VALID,280,VALID,0.203516,
2009-11-28, 00:42:04,VALID,1002.85,VALID,0,VALID,86.542,VALID,0,VALID,26.9167,VALID,7,VALID,0.303125,
2009-11-28, 00:43:04,VALID,1002.83,VALID,0,VALID,86.3894,VALID,0,VALID,26.9167,VALID,341,VALID,0.301562,
2009-11-28, 00:44:04,VALID,1002.82,VALID,0,VALID,86.3132,VALID,0,VALID,26.8973,VALID,332,VALID,0.769922,
2009-11-28, 00:45:04,VALID,1002.81,VALID,0,VALID,86.3589,VALID,0,VALID,26.9167,VALID,270,VALID,0.223438,
2009-11-28, 00:46:04,VALID,1002.82,VALID,0,VALID,86.4047,VALID,0,VALID,26.9167,VALID,276,VALID,0.428906,
2009-11-28, 00:47:04,VALID,1002.75,VALID,0,VALID,86.4581,VALID,0,VALID,26.8973,VALID,289,VALID,0.235547,
2009-11-28, 00:48:04,VALID,1002.74,VALID,0,VALID,86.4505,VALID,0,VALID,26.8778,VALID,2,VALID,0.315625,
2009-11-28, 00:49:04,VALID,1002.74,VALID,0,VALID,86.4962,VALID,0,VALID,26.8583,VALID,342,VALID,0.944531,
2009-11-28, 00:50:04,VALID,1002.7,VALID,0,VALID,86.5878,VALID,0,VALID,26.8603,VALID,334,VALID,0.360938,
2009-11-28, 00:51:04,VALID,1002.69,VALID,0,VALID,86.7404,VALID,0,VALID,26.8388,VALID,343,VALID,0.226953,
2009-11-28, 00:52:04,VALID,1002.68,VALID,0,VALID,86.7099,VALID,0,VALID,26.7978,VALID,340,VALID,0.578125,
2009-11-28, 00:53:04,VALID,1002.64,VALID,0,VALID,86.7175,VALID,0,VALID,26.8193,VALID,278,VALID,0.566797,
2009-11-28, 00:54:04,VALID,1002.64,VALID,0,VALID,86.7251,VALID,0,VALID,26.7998,VALID,314,VALID,0.211328,
2009-11-28, 00:55:04,VALID,1002.62,VALID,0,VALID,86.7709,VALID,0,VALID,26.7394,VALID,315,VALID,0.200781,
2009-11-28, 00:56:04,VALID,1002.59,VALID,0,VALID,86.5344,VALID,0,VALID,26.7414,VALID,316,VALID,0.342578,
2009-11-28, 00:57:04,VALID,1002.58,VALID,0,VALID,86.6488,VALID,0,VALID,26.7629,VALID,285,VALID,0.1125,
2009-11-28, 00:58:04,VALID,1002.58,VALID,0,VALID,86.5878,VALID,0,VALID,26.7024,VALID,353,VALID,0.814844,
2009-11-28, 00:59:04,VALID,1002.55,VALID,0,VALID,86.4886,VALID,0,VALID,26.7024,VALID,355,VALID,0.871094,
2009-11-28, 01:00:04,VALID,1002.57,VALID,0,VALID,86.7022,VALID,0,VALID,26.7024,VALID,356,VALID,0.222656,
2009-11-28, 01:01:04,VALID,1002.57,VALID,0,VALID,86.7327,VALID,0,VALID,26.683,VALID,350,VALID,0.576953,
2009-11-28, 01:02:04,VALID,1002.56,VALID,0,VALID,86.6717,VALID,0,VALID,26.6635,VALID,7,VALID,0.512109,
2009-11-28, 01:03:04,VALID,1002.6,VALID,0,VALID,86.5115,VALID,0,VALID,26.6635,VALID,291,VALID,0.564453,
2009-11-28, 01:04:04,VALID,1002.59,VALID,0,VALID,86.6259,VALID,0,VALID,26.6635,VALID,344,VALID,0.291016,
2009-11-28, 01:05:04,VALID,1002.6,VALID,0,VALID,86.5191,VALID,0,VALID,26.6245,VALID,340,VALID,1.0168,
2009-11-28, 01:06:04,VALID,1002.59,VALID,0,VALID,86.4581,VALID,0,VALID,26.6225,VALID,353,VALID,0.707031,
2009-11-28, 01:07:04,VALID,1002.56,VALID,0,VALID,86.3666,VALID,0,VALID,26.644,VALID,358,VALID,0.86875,
2009-11-28, 01:08:04,VALID,1002.57,VALID,0,VALID,86.3666,VALID,0,VALID,26.6635,VALID,306,VALID,0.728906,
2009-11-28, 01:09:04,VALID,1002.56,VALID,0,VALID,86.4581,VALID,0,VALID,26.6635,VALID,309,VALID,0.35625,
2009-11-28, 01:10:04,VALID,1002.55,VALID,0,VALID,86.4352,VALID,0,VALID,26.6635,VALID,10,VALID,0.877344,
2009-11-28, 01:11:04,VALID,1002.57,VALID,0,VALID,86.4962,VALID,0,VALID,26.683,VALID,336,VALID,0.203516,
2009-11-28, 01:12:04,VALID,1002.56,VALID,0,VALID,86.42,VALID,0,VALID,26.683,VALID,294,VALID,0.737109,
2009-11-28, 01:13:04,VALID,1002.58,VALID,0,VALID,86.4962,VALID,0,VALID,26.6635,VALID,329,VALID,0.295703,
2009-11-28, 01:14:04,VALID,1002.56,VALID,0,VALID,86.5344,VALID,0,VALID,26.6635,VALID,323,VALID,0.386719,
2009-11-28, 01:15:04,VALID,1002.57,VALID,0,VALID,86.5649,VALID,0,VALID,26.6635,VALID,316,VALID,0.412109,
2009-11-28, 01:16:04,VALID,1002.58,VALID,0,VALID,86.5039,VALID,0,VALID,26.685,VALID,296,VALID,0.471094,
2009-11-28, 01:17:04,VALID,1002.56,VALID,0,VALID,86.5039,VALID,0,VALID,26.642,VALID,24,VALID,0.45625,
2009-11-28, 01:18:04,VALID,1002.55,VALID,0,VALID,86.4428,VALID,0,VALID,26.6635,VALID,346,VALID,0.978906,
2009-11-28, 01:19:04,VALID,1002.51,VALID,0,VALID,86.4657,VALID,0,VALID,26.644,VALID,328,VALID,0.761328,
2009-11-28, 01:20:04,VALID,1002.5,VALID,0,VALID,86.5496,VALID,0,VALID,26.6635,VALID,276,VALID,0.486719,
2009-11-28, 01:21:04,VALID,1002.46,VALID,0,VALID,86.6031,VALID,0,VALID,26.6635,VALID,281,VALID,0.683203,
2009-11-28, 01:22:04,VALID,1002.43,VALID,0,VALID,86.7327,VALID,0,VALID,26.642,VALID,339,VALID,0.226172,
2009-11-28, 01:23:04,VALID,1002.41,VALID,0,VALID,86.5649,VALID,0,VALID,26.6635,VALID,318,VALID,0.628125,
2009-11-28, 01:24:04,VALID,1002.42,VALID,0,VALID,86.7785,VALID,0,VALID,26.644,VALID,22,VALID,0.440625,
2009-11-28, 01:25:04,VALID,1002.37,VALID,0,VALID,86.6412,VALID,0,VALID,26.6245,VALID,335,VALID,0.781641,
2009-11-28, 01:26:04,VALID,1002.36,VALID,0,VALID,86.6412,VALID,0,VALID,26.6245,VALID,353,VALID,1.0418,
2009-11-28, 01:27:04,VALID,1002.39,VALID,0,VALID,86.7556,VALID,0,VALID,26.605,VALID,346,VALID,1.03945,
2009-11-28, 01:28:04,VALID,1002.37,VALID,0,VALID,86.7327,VALID,0,VALID,26.605,VALID,343,VALID,0.79375,
2009-11-28, 01:29:04,VALID,1002.4,VALID,0,VALID,86.8624,VALID,0,VALID,26.605,VALID,308,VALID,0.520312,
2009-11-28, 01:30:04,VALID,1002.41,VALID,0,VALID,86.8624,VALID,0,VALID,26.5855,VALID,8,VALID,0.902344,
2009-11-28, 01:31:04,VALID,1002.4,VALID,0,VALID,86.8624,VALID,0,VALID,26.605,VALID,340,VALID,1.17656,
2009-11-28, 01:32:04,VALID,1002.39,VALID,0,VALID,86.6107,VALID,0,VALID,26.5661,VALID,350,VALID,2.32539,
2009-11-28, 01:33:04,VALID,1002.42,VALID,0,VALID,86.748,VALID,0,VALID,26.5466,VALID,344,VALID,1.16875,
2009-11-28, 01:34:04,VALID,1002.4,VALID,0,VALID,86.7633,VALID,0,VALID,26.5466,VALID,346,VALID,0.808594,
2009-11-28, 01:35:04,VALID,1002.44,VALID,0,VALID,86.9616,VALID,0,VALID,26.5076,VALID,326,VALID,0.597656,
2009-11-28, 01:36:04,VALID,1002.42,VALID,0,VALID,86.9311,VALID,0,VALID,26.4687,VALID,354,VALID,1.18242,
2009-11-28, 01:37:04,VALID,1002.42,VALID,0,VALID,86.9692,VALID,0,VALID,26.4297,VALID,298,VALID,0.769531,
2009-11-28, 01:38:04,VALID,1002.43,VALID,0,VALID,87.1905,VALID,0,VALID,26.4317,VALID,315,VALID,0.255469,
2009-11-28, 01:39:04,VALID,1002.43,VALID,0,VALID,87.1676,VALID,0,VALID,26.3713,VALID,354,VALID,0.742969,
2009-11-28, 01:40:04,VALID,1002.41,VALID,0,VALID,87.2286,VALID,0,VALID,26.3323,VALID,356,VALID,0.894141,
2009-11-28, 01:41:04,VALID,1002.4,VALID,0,VALID,87.3965,VALID,0,VALID,26.3128,VALID,347,VALID,0.741797,
2009-11-28, 01:42:04,VALID,1002.4,VALID,0,VALID,87.4727,VALID,0,VALID,26.2933,VALID,5,VALID,0.894141,
2009-11-28, 01:43:04,VALID,1002.38,VALID,0,VALID,87.4727,VALID,0,VALID,26.2933,VALID,329,VALID,0.762891,
2009-11-28, 01:44:04,VALID,1002.36,VALID,0,VALID,87.5795,VALID,0,VALID,26.2933,VALID,289,VALID,0.349219,
2009-11-28, 01:45:04,VALID,1002.31,VALID,0,VALID,87.5643,VALID,0,VALID,26.2933,VALID,360,VALID,0.886328,
2009-11-28, 01:46:04,VALID,1002.29,VALID,0,VALID,87.6329,VALID,0,VALID,26.2953,VALID,309,VALID,0.739844,
2009-11-28, 01:47:04,VALID,1002.3,VALID,0,VALID,87.5795,VALID,0,VALID,26.2739,VALID,341,VALID,1.02344,
2009-11-28, 01:48:04,VALID,1002.26,VALID,0,VALID,87.6787,VALID,0,VALID,26.2739,VALID,349,VALID,0.545703,
2009-11-28, 01:49:04,VALID,1002.27,VALID,0,VALID,87.7474,VALID,0,VALID,26.2739,VALID,360,VALID,0.947266,
2009-11-28, 01:50:04,VALID,1002.29,VALID,0,VALID,87.7245,VALID,0,VALID,26.2739,VALID,331,VALID,0.466016,
2009-11-28, 01:51:04,VALID,1002.28,VALID,0,VALID,87.7016,VALID,0,VALID,26.2739,VALID,323,VALID,1.07578,
2009-11-28, 01:52:04,VALID,1002.31,VALID,0,VALID,87.7626,VALID,0,VALID,26.2739,VALID,354,VALID,1.2293,
2009-11-28, 01:53:04,VALID,1002.32,VALID,0,VALID,87.694,VALID,0,VALID,26.2933,VALID,345,VALID,0.367578,
2009-11-28, 01:54:04,VALID,1002.35,VALID,0,VALID,87.6253,VALID,0,VALID,26.2933,VALID,338,VALID,0.438672,
2009-11-28, 01:55:04,VALID,1002.34,VALID,0,VALID,87.5338,VALID,0,VALID,26.2933,VALID,348,VALID,1.59063,
2009-11-28, 01:56:04,VALID,1002.35,VALID,0,VALID,87.6024,VALID,0,VALID,26.2933,VALID,349,VALID,0.971875,
2009-11-28, 01:57:04,VALID,1002.33,VALID,0,VALID,87.7016,VALID,0,VALID,26.2719,VALID,353,VALID,0.4875,
2009-11-28, 01:58:04,VALID,1002.31,VALID,0,VALID,87.7703,VALID,0,VALID,26.2739,VALID,344,VALID,0.839453,
2009-11-28, 01:59:04,VALID,1002.3,VALID,0,VALID,87.8313,VALID,0,VALID,26.2544,VALID,351,VALID,1.33828,
2009-11-28, 02:00:04,VALID,1002.31,VALID,0,VALID,87.8542,VALID,0,VALID,26.2349,VALID,353,VALID,0.946875,
2009-11-28, 02:01:04,VALID,1002.29,VALID,0,VALID,88.0068,VALID,0,VALID,26.2154,VALID,17,VALID,0.537891,
2009-11-28, 02:02:04,VALID,1002.29,VALID,0,VALID,88.1212,VALID,0,VALID,26.2174,VALID,347,VALID,0.704687,
2009-11-28, 02:03:04,VALID,1002.29,VALID,0,VALID,88.2204,VALID,0,VALID,26.1745,VALID,347,VALID,0.846484,
2009-11-28, 02:04:04,VALID,1002.26,VALID,0,VALID,88.3577,VALID,0,VALID,26.1765,VALID,356,VALID,0.725781,
2009-11-28, 02:05:04,VALID,1002.29,VALID,0,VALID,88.3806,VALID,0,VALID,26.1765,VALID,343,VALID,0.691016,
2009-11-28, 02:06:04,VALID,1002.26,VALID,0,VALID,88.5179,VALID,0,VALID,26.1784,VALID,338,VALID,0.474219,
2009-11-28, 02:07:04,VALID,1002.28,VALID,0,VALID,88.556,VALID,0,VALID,26.1765,VALID,333,VALID,0.501172,
2009-11-28, 02:08:04,VALID,1002.25,VALID,0,VALID,88.5942,VALID,0,VALID,26.1784,VALID,339,VALID,0.754297,
2009-11-28, 02:09:04,VALID,1002.22,VALID,0,VALID,88.64,VALID,0,VALID,26.157,VALID,346,VALID,1.03203,
2009-11-28, 02:10:04,VALID,1002.2,VALID,0,VALID,88.6628,VALID,0,VALID,26.157,VALID,356,VALID,1.11445,
2009-11-28, 02:11:04,VALID,1002.18,VALID,0,VALID,88.6247,VALID,0,VALID,26.2154,VALID,340,VALID,1.19805,
2009-11-28, 02:12:04,VALID,1002.16,VALID,0,VALID,88.6247,VALID,0,VALID,26.2154,VALID,350,VALID,1.12383,
2009-11-28, 02:13:04,VALID,1002.16,VALID,0,VALID,88.5789,VALID,0,VALID,26.2349,VALID,333,VALID,1.3168,
2009-11-28, 02:14:04,VALID,1002.16,VALID,0,VALID,88.5408,VALID,0,VALID,26.2544,VALID,354,VALID,1.48008,
2009-11-28, 02:15:04,VALID,1002.13,VALID,0,VALID,88.4035,VALID,0,VALID,26.2933,VALID,313,VALID,0.985937,
2009-11-28, 02:16:04,VALID,1002.17,VALID,0,VALID,88.3501,VALID,0,VALID,26.3128,VALID,351,VALID,1.52266,
2009-11-28, 02:17:04,VALID,1002.22,VALID,0,VALID,88.2585,VALID,0,VALID,26.3518,VALID,352,VALID,1.35625,
2009-11-28, 02:18:04,VALID,1002.22,VALID,0,VALID,88.2051,VALID,0,VALID,26.3713,VALID,356,VALID,0.863281,
2009-11-28, 02:19:04,VALID,1002.25,VALID,0,VALID,88.167,VALID,0,VALID,26.4102,VALID,357,VALID,0.728906,
2009-11-28, 02:20:04,VALID,1002.24,VALID,0,VALID,88.1441,VALID,0,VALID,26.4297,VALID,356,VALID,0.634766,
2009-11-28, 02:21:04,VALID,1002.27,VALID,0,VALID,88.0373,VALID,0,VALID,26.4297,VALID,316,VALID,0.344922,
2009-11-28, 02:22:04,VALID,1002.26,VALID,0,VALID,88.0525,VALID,0,VALID,26.4492,VALID,352,VALID,0.384375,
2009-11-28, 02:23:04,VALID,1002.27,VALID,0,VALID,88.0068,VALID,0,VALID,26.4687,VALID,352,VALID,0.835938,
2009-11-28, 02:24:04,VALID,1002.28,VALID,0,VALID,87.9534,VALID,0,VALID,26.4881,VALID,344,VALID,0.738281,
2009-11-28, 02:25:04,VALID,1002.31,VALID,0,VALID,87.8389,VALID,0,VALID,26.5076,VALID,352,VALID,0.967969,
2009-11-28, 02:26:04,VALID,1002.31,VALID,0,VALID,87.8694,VALID,0,VALID,26.5076,VALID,337,VALID,0.511328,
2009-11-28, 02:27:04,VALID,1002.33,VALID,0,VALID,87.8008,VALID,0,VALID,26.5076,VALID,354,VALID,0.991406,
2009-11-28, 02:28:04,VALID,1002.34,VALID,0,VALID,87.7855,VALID,0,VALID,26.5056,VALID,354,VALID,1.07539,
2009-11-28, 02:29:04,VALID,1002.34,VALID,0,VALID,87.7321,VALID,0,VALID,26.5056,VALID,347,VALID,1.02539,
2009-11-28, 02:30:04,VALID,1002.32,VALID,0,VALID,87.6711,VALID,0,VALID,26.5661,VALID,354,VALID,1.00664,
2009-11-28, 02:31:04,VALID,1002.3,VALID,0,VALID,87.5643,VALID,0,VALID,26.5446,VALID,355,VALID,1.37812,
2009-11-28, 02:32:04,VALID,1002.31,VALID,0,VALID,87.4956,VALID,0,VALID,26.605,VALID,354,VALID,0.798437,
2009-11-28, 02:33:04,VALID,1002.27,VALID,0,VALID,87.3736,VALID,0,VALID,26.5855,VALID,354,VALID,1.38281,
2009-11-28, 02:34:04,VALID,1002.26,VALID,0,VALID,87.3125,VALID,0,VALID,26.5855,VALID,316,VALID,0.566797,
2009-11-28, 02:35:04,VALID,1002.22,VALID,0,VALID,87.1752,VALID,0,VALID,26.5466,VALID,350,VALID,1.19414,
2009-11-28, 02:36:04,VALID,1002.2,VALID,0,VALID,87.1828,VALID,0,VALID,26.5076,VALID,357,VALID,1.04805,
2009-11-28, 02:37:04,VALID,1002.2,VALID,0,VALID,87.2896,VALID,0,VALID,26.4492,VALID,345,VALID,1.45039,
2009-11-28, 02:38:04,VALID,1002.15,VALID,0,VALID,87.3965,VALID,0,VALID,26.3713,VALID,358,VALID,0.930469,
2009-11-28, 02:39:04,VALID,1002.15,VALID,0,VALID,87.427,VALID,0,VALID,26.3128,VALID,351,VALID,1.4293,
2009-11-28, 02:40:04,VALID,1002.1,VALID,0,VALID,87.6406,VALID,0,VALID,26.2933,VALID,352,VALID,0.861719,
2009-11-28, 02:41:04,VALID,1002.04,VALID,0,VALID,87.7626,VALID,0,VALID,26.2349,VALID,351,VALID,1.38164,
2009-11-28, 02:42:04,VALID,1002.01,VALID,0,VALID,87.9991,VALID,0,VALID,26.1765,VALID,351,VALID,1.40313,
2009-11-28, 02:43:04,VALID,1001.97,VALID,0,VALID,88.1899,VALID,0,VALID,26.1355,VALID,355,VALID,1.30234,
2009-11-28, 02:44:04,VALID,1001.93,VALID,0,VALID,88.4035,VALID,0.100563,VALID,26.0771,VALID,349,VALID,1.17852,
2009-11-28, 02:45:04,VALID,1001.91,VALID,0,VALID,88.6018,VALID,0.100563,VALID,26.0187,VALID,355,VALID,1.06016,
2009-11-28, 02:46:04,VALID,1001.93,VALID,0,VALID,88.7773,VALID,0.100563,VALID,25.9992,VALID,353,VALID,0.825781,
2009-11-28, 02:47:04,VALID,1001.88,VALID,0,VALID,88.8612,VALID,0.100563,VALID,25.9602,VALID,324,VALID,0.718359,
2009-11-28, 02:48:04,VALID,1001.87,VALID,0,VALID,89.0672,VALID,0.100563,VALID,25.9193,VALID,6,VALID,0.960156,
2009-11-28, 02:49:04,VALID,1001.86,VALID,0,VALID,89.2045,VALID,0.100563,VALID,25.9427,VALID,353,VALID,1.43398,
2009-11-28, 02:50:04,VALID,1001.82,VALID,0,VALID,89.3342,VALID,0,VALID,25.8823,VALID,17,VALID,1.20195,
2009-11-28, 02:51:04,VALID,1001.85,VALID,0,VALID,89.4486,VALID,0.100563,VALID,25.8629,VALID,358,VALID,1.58125,
2009-11-28, 02:52:04,VALID,1001.85,VALID,0,VALID,89.5097,VALID,0.100563,VALID,25.8239,VALID,354,VALID,1.40937,
2009-11-28, 02:53:04,VALID,1001.87,VALID,0,VALID,89.5936,VALID,0.100563,VALID,25.8044,VALID,356,VALID,1.44922,
2009-11-28, 02:54:04,VALID,1001.88,VALID,0,VALID,89.6317,VALID,0.100563,VALID,25.785,VALID,351,VALID,0.977344,
2009-11-28, 02:55:04,VALID,1001.87,VALID,0,VALID,89.708,VALID,0,VALID,25.7655,VALID,360,VALID,1.06211,
2009-11-28, 02:56:04,VALID,1001.88,VALID,0,VALID,89.7996,VALID,0,VALID,25.746,VALID,351,VALID,1.04922,
2009-11-28, 02:57:04,VALID,1001.89,VALID,0,VALID,89.7538,VALID,0.100563,VALID,25.7265,VALID,351,VALID,1.13867,
2009-11-28, 02:58:04,VALID,1001.91,VALID,0,VALID,89.8987,VALID,0,VALID,25.6876,VALID,358,VALID,1.36875,
2009-11-28, 02:59:04,VALID,1001.89,VALID,0,VALID,90.0055,VALID,0,VALID,25.67,VALID,346,VALID,1.08789,
2009-11-28, 03:00:04,VALID,1001.89,VALID,0,VALID,90.0818,VALID,0,VALID,25.67,VALID,354,VALID,0.400391,
2009-11-28, 03:01:04,VALID,1001.89,VALID,0,VALID,90.12,VALID,0,VALID,25.6292,VALID,354,VALID,1.25664,
2009-11-28, 03:02:04,VALID,1001.87,VALID,0,VALID,90.1886,VALID,0,VALID,25.6311,VALID,2,VALID,0.558203,
2009-11-28, 03:03:04,VALID,1001.85,VALID,0,VALID,90.2268,VALID,0,VALID,25.6311,VALID,343,VALID,0.929688,
2009-11-28, 03:04:04,VALID,1001.8,VALID,0,VALID,90.2649,VALID,0,VALID,25.5921,VALID,321,VALID,0.701172,
2009-11-28, 03:05:04,VALID,1001.82,VALID,0,VALID,90.2268,VALID,0,VALID,25.5921,VALID,347,VALID,1.22969,
2009-11-28, 03:06:04,VALID,1001.78,VALID,0,VALID,90.1429,VALID,0,VALID,25.5921,VALID,347,VALID,1.23281,
2009-11-28, 03:07:04,VALID,1001.81,VALID,0,VALID,89.9521,VALID,0,VALID,25.6116,VALID,349,VALID,1.50156,
2009-11-28, 03:08:04,VALID,1001.81,VALID,0,VALID,89.7767,VALID,0,VALID,25.6311,VALID,285,VALID,0.653906,
2009-11-28, 03:09:04,VALID,1001.82,VALID,0,VALID,89.5478,VALID,0,VALID,25.6506,VALID,351,VALID,1.95938,
2009-11-28, 03:10:04,VALID,1001.81,VALID,0,VALID,89.3494,VALID,0,VALID,25.7109,VALID,337,VALID,1.09961,
2009-11-28, 03:11:04,VALID,1001.76,VALID,0,VALID,89.2732,VALID,0,VALID,25.709,VALID,350,VALID,0.815234,
2009-11-28, 03:12:04,VALID,1001.72,VALID,0,VALID,89.1664,VALID,0,VALID,25.6895,VALID,344,VALID,1.14648,
2009-11-28, 03:13:04,VALID,1001.71,VALID,0,VALID,89.0214,VALID,0,VALID,25.7285,VALID,12,VALID,0.797656,
2009-11-28, 03:14:04,VALID,1001.72,VALID,0,VALID,88.907,VALID,0,VALID,25.7265,VALID,350,VALID,0.719531,
2009-11-28, 03:15:04,VALID,1001.68,VALID,0,VALID,88.7849,VALID,0,VALID,25.748,VALID,357,VALID,1.25742,
2009-11-28, 03:16:04,VALID,1001.64,VALID,0,VALID,88.4569,VALID,0,VALID,25.748,VALID,335,VALID,1.61055,
2009-11-28, 03:17:04,VALID,1001.66,VALID,0,VALID,88.228,VALID,0,VALID,25.8278,VALID,351,VALID,1.2707,
2009-11-28, 03:18:04,VALID,1001.67,VALID,0,VALID,87.6635,VALID,0,VALID,25.8259,VALID,352,VALID,1.41133,
2009-11-28, 03:19:04,VALID,1001.68,VALID,0,VALID,87.5414,VALID,0,VALID,25.8648,VALID,341,VALID,1.41523,
2009-11-28, 03:20:04,VALID,1001.69,VALID,0,VALID,87.1676,VALID,0,VALID,25.8843,VALID,350,VALID,1.63164,
2009-11-28, 03:21:04,VALID,1001.75,VALID,0,VALID,86.9692,VALID,0,VALID,25.9232,VALID,311,VALID,0.764844,
2009-11-28, 03:22:04,VALID,1001.78,VALID,0,VALID,86.7861,VALID,0,VALID,25.9427,VALID,349,VALID,1.20859,
2009-11-28, 03:23:04,VALID,1001.8,VALID,0,VALID,86.4047,VALID,0,VALID,25.9817,VALID,351,VALID,1.75117,
2009-11-28, 03:24:04,VALID,1001.87,VALID,0,VALID,86.069,VALID,0,VALID,26.0206,VALID,350,VALID,1.70664,
2009-11-28, 03:25:04,VALID,1001.9,VALID,0,VALID,85.9165,VALID,0,VALID,26.0791,VALID,326,VALID,0.548437,
2009-11-28, 03:26:04,VALID,1001.97,VALID,0,VALID,85.8783,VALID,0,VALID,26.1005,VALID,351,VALID,0.730078,
2009-11-28, 03:27:04,VALID,1001.99,VALID,0,VALID,85.4816,VALID,0,VALID,26.118,VALID,353,VALID,0.942187,
2009-11-28, 03:28:04,VALID,1002.04,VALID,0,VALID,85.3824,VALID,0,VALID,26.1979,VALID,20,VALID,0.954297,
2009-11-28, 03:29:04,VALID,1002.06,VALID,0,VALID,84.7416,VALID,0,VALID,26.3148,VALID,357,VALID,1.30117,
2009-11-28, 03:30:04,VALID,1002.08,VALID,0,VALID,84.2457,VALID,0,VALID,26.3713,VALID,354,VALID,1.56484,
2009-11-28, 03:31:04,VALID,1002.11,VALID,0,VALID,83.994,VALID,0,VALID,26.4277,VALID,354,VALID,0.885938,
2009-11-28, 03:32:04,VALID,1002.14,VALID,0,VALID,83.8185,VALID,0,VALID,26.5056,VALID,344,VALID,0.670313,
2009-11-28, 03:33:04,VALID,1002.15,VALID,0,VALID,83.7956,VALID,0,VALID,26.5271,VALID,360,VALID,0.668359,
2009-11-28, 03:34:04,VALID,1002.16,VALID,0,VALID,84.1237,VALID,0,VALID,26.5466,VALID,6,VALID,0.433984,
2009-11-28, 03:35:04,VALID,1002.15,VALID,0,VALID,84.1237,VALID,0,VALID,26.5271,VALID,353,VALID,0.915625,
2009-11-28, 03:36:04,VALID,1002.12,VALID,0,VALID,84.0779,VALID,0,VALID,26.5271,VALID,15,VALID,0.692969,
2009-11-28, 03:37:04,VALID,1002.12,VALID,0,VALID,84.3449,VALID,0,VALID,26.5076,VALID,31,VALID,0.840234,
2009-11-28, 03:38:04,VALID,1002.11,VALID,0,VALID,84.4593,VALID,0,VALID,26.4687,VALID,19,VALID,0.860156,
2009-11-28, 03:39:04,VALID,1002.1,VALID,0,VALID,84.8179,VALID,0,VALID,26.4297,VALID,21,VALID,0.646875,
2009-11-28, 03:40:04,VALID,1002.1,VALID,0,VALID,85.123,VALID,0,VALID,26.3907,VALID,17,VALID,0.546875,
2009-11-28, 03:41:04,VALID,1002.12,VALID,0,VALID,84.8789,VALID,0,VALID,26.3713,VALID,7,VALID,1.475,
2009-11-28, 03:42:04,VALID,1002.13,VALID,0,VALID,84.8255,VALID,0,VALID,26.4102,VALID,12,VALID,0.295703,
2009-11-28, 03:43:04,VALID,1002.13,VALID,0,VALID,84.6729,VALID,0,VALID,26.4297,VALID,317,VALID,0.666016,
2009-11-28, 03:44:04,VALID,1002.16,VALID,0,VALID,84.4441,VALID,0,VALID,26.4277,VALID,351,VALID,0.610937,